Location: Unspecified
(0.0000°N, 0.0000°E)
Time: 04:26:13
(UTC+00:00)

Hubble Space Telescope - Pass Details

Date: 13 November 2019
Orbit: 536 x 540 km, 28.5° (Epoch: 10 November)

Event Time Altitude Azimuth Distance (km) Brightness Sun altitude
Exits shadow 03:49:55 13° 37° (NE) 1,582 3.3 -27.1°
Drops below altitude 10° 03:51:24 10° 58° (ENE) 1,779 3.8 -26.7°
Sets 03:54:40 0° 85° (E) 2,670 5.3 -26.0°
